Temp
81 78 74 70 70 67 66 65 63 64 64 62 62 59 55 56 54 48 49 47 46 46 45 46 48 53 54 55 56 55 54 53 48 52 55 57 55 54 55 54 53 52 51
81 79 73 68 67 65 63 62 61 61 58 57 54 53 50 48 47 44 45 47 45 44 47 46 47 52 52 54 54 52 53 53 49 46 52 53 53 54 53 52 52 53 51
81 79 71 64 63 60 57 56 55 54 53 52 51 49 47 46 45 46 45 45 44 45 45 46 49 49 49 51 52 52 53 52 51 49 48 53 53 53 51 52 50 50 51
77 75 65 61 60 58 56 55 53 52 51 50 50 48 46 45 46 46 45 44 45 46 46 47 48 48 49 50 51 53 53 50 49 48 48 49 50 52 51 48 46 49 48
64 61 58 59 60 59 57 56 55 53 52 51 48 47 46 46 46 45 46 46 44 44 45 47 49 49 47 47 52 51 52 50 49 46 45 47 47 48 46 48 45 46 47
67 64 64 64 64 61 59 58 58 56 56 54 52 51 50 51 41 41 43 44 44 44 46 48 53 50 50 43 43 42 44 46 47 46 46 43 45 45 46 44 43 41 38
65 63 62 61 59 58 58 58 57 55 55 52 50 50 50 48 40 40 39 47 49 51 52 52 53 55 50 54 46 40 39 38 35 43 43 44 43 45 44 42 42 41 40
62 61 60 59 58 58 58 55 54 53 53 51 49 46 48 50 41 40 39 49 50 51 52 52 52 52 52 50 50 50 50 49 46 45 44 45 45 47 45 44 42 41 41
61 60 60 59 58 57 55 53 52 50 46 50 51 51 52 54 42 40 41 49 49 49 52 52 52 52 47 43 47 46 47 47 48 41 42 41 37 36 37 41 37 35 33
60 60 60 59 56 51 49 47 46 51 54 56 54 54 44 51 42 40 42 45 43 45 47 49 43 45 42 40 44 44 41 44 46 47 45 41 38 40 34 38 38 33 34
60 58 55 53 52 50 48 52 54 54 53 50 48 50 50 49 48 40 38 41 39 36 38 41 43 40 38 38 37 41 41 44 42 43 43 43 40 41 42 40 40 37 34
56 54 52 52 53 55 54 53 53 52 49 48 46 46 48 48 40 37 36 34 34 35 35 38 39 37 36 35 36 36 34 34 36 37 37 36 37 37 39 42 42 41 41
54 53 53 53 53 54 52 51 52 50 46 44 43 42 43 43 44 36 35 34 34 33 35 35 33 34 35 36 35 35 33 34 34 32 33 36 39 41 41 38 39 42 42
52 51 52 51 50 51 52 50 48 44 42 41 40 38 39 38 39 36 33 34 34 34 33 34 32 31 31 32 34 37 38 36 34 33 35 39 40 38 35 37 36 37 35
51 50 49 48 48 48 47 44 41 36 34 36 36 35 32 31 32 29 28 29 30 30 29 32 34 36 36 36 37 38 39 39 34 34 33 35 35 35 34 35 35 35 33
47 46 43 43 43 46 45 40 31 32 31 30 29 29 30 29 27 27 27 28 28 29 30 31 31 30 30 31 33 33 34 37 36 34 34 35 35 34 34 34 34 32 32
44 41 39 40 41 40 41 39 39 31 31 30 29 28 28 26 26 26 27 28 29 30 29 29 28 27 27 28 29 31 28 32 36 35 33 33 35 35 33 32 31 32 32
39 33 41 40 39 39 38 36 37 33 31 33 31 30 28 27 25 26 27 28 29 29 29 27 26 26 25 26 26 26 28 25 34 34 33 34 34 33 32 31 31 31 31
39 38 37 35 33 32 33 33 33 32 31 31 32 32 31 26 25 28 28 27 25 25 26 25 25 25 24 24 24 25 23 22 31 32 32 32 32 33 32 32 31 30 31
31 28 31 33 32 32 32 31 31 30 29 29 28 28 28 23 22 25 26 25 24 24 23 23 23 23 22 22 23 23 20 22 23 32 32 32 32 33 32 31 31 30 31
34 29 25 31 30 30 29 28 28 27 26 26 26 25 17 19 21 23 24 23 23 22 21 21 21 21 22 22 21 21 20 19 23 24 30 33 32 31 32 32 31 31 31
29 29 28 28 28 27 25 26 26 25 24 24 25 25 22 21 23 22 22 22 21 21 22 20 20 20 20 20 20 19 19 18 20 22 21 24 31 32 32 31 31 31 31
27 26 26 27 25 21 23 24 23 23 22 22 22 22 22 21 20 20 20 20 20 20 19 19 18 18 19 19 20 19 18 17 18 18 18 20 24 31 31 30 30 30 30
25 25 24 24 23 20 22 20 21 20 20 20 20 20 20 19 19 18 18 19 18 18 18 17 17 15 17 18 18 19 18 19 18 17 17 18 22 25 31 30 30 30 30
24 23 22 22 21 20 19 20 19 19 19 18 18 18 18 18 18 17 17 17 16 15 16 14 14 16 16 15 15 15 17 18 16 15 16 19 19 22 27 30 30 30 29
22 21 20 20 20 19 18 17 17 17 16 17 16 16 16 16 16 15 15 14 14 13 12 14 14 13 13 14 16 17 15 14 13 14 16 17 19 24 27 30 30 30 29
MSLP
1009.66 1010.88 1012.05 1013.03 1013.59 1014.25 1014.62 1015.07 1015.78 1016.41 1017.05 1017.50 1018.04 1018.68 1019.33 1019.84 1020.50 1021.67 1022.39 1023.08 1023.57 1023.72 1024.06 1024.45 1024.38 1023.98 1023.83 1023.67 1023.47 1023.42 1023.33 1023.20 1022.76 1022.48 1022.32 1022.03 1022.07 1022.25 1022.37 1022.87 1023.28 1023.35 1023.39
1009.20 1010.15 1011.26 1012.49 1013.29 1013.94 1014.58 1015.18 1015.71 1016.28 1016.83 1017.39 1018.06 1018.84 1019.53 1020.31 1021.01 1021.72 1022.75 1023.29 1023.35 1023.53 1023.93 1024.19 1023.92 1023.63 1023.26 1023.15 1023.07 1022.99 1022.82 1022.70 1022.85 1022.34 1021.99 1021.65 1021.61 1021.73 1021.86 1022.09 1022.42 1022.56 1022.64
1009.08 1010.01 1011.32 1012.89 1013.78 1014.68 1015.38 1015.87 1016.26 1016.73 1017.33 1017.97 1018.62 1019.54 1020.10 1020.83 1021.54 1022.16 1022.72 1023.09 1023.34 1023.47 1023.60 1023.55 1023.12 1023.13 1023.01 1022.97 1022.68 1022.52 1022.18 1022.17 1022.25 1021.99 1021.53 1021.14 1021.10 1021.13 1021.14 1021.26 1021.40 1021.55 1021.81
1009.84 1010.77 1012.22 1013.44 1014.47 1015.27 1015.83 1016.41 1016.87 1017.34 1017.83 1018.47 1019.12 1019.71 1020.27 1021.03 1021.65 1022.12 1022.47 1022.54 1022.81 1022.89 1022.92 1022.93 1022.81 1022.76 1022.66 1022.30 1022.05 1021.55 1021.27 1021.29 1021.31 1021.17 1020.97 1020.75 1020.62 1020.39 1020.50 1020.53 1020.52 1020.68 1020.66
1011.49 1012.38 1013.40 1014.26 1014.79 1015.50 1015.93 1016.44 1017.07 1017.68 1018.23 1018.90 1019.55 1020.03 1020.57 1021.06 1021.40 1021.74 1022.10 1022.24 1022.40 1022.47 1022.47 1022.45 1022.19 1021.72 1021.69 1021.72 1021.58 1021.17 1020.74 1020.46 1020.46 1020.54 1020.39 1020.17 1019.80 1019.71 1019.77 1019.83 1020.03 1020.05 1020.13
1011.60 1012.62 1013.35 1013.83 1014.39 1015.17 1015.87 1016.52 1017.07 1017.81 1018.27 1018.94 1019.41 1019.94 1020.53 1021.02 1021.55 1021.79 1022.16 1022.24 1022.22 1022.13 1021.81 1021.40 1020.89 1020.68 1020.63 1020.63 1020.64 1020.56 1020.71 1020.54 1020.05 1019.84 1019.42 1019.55 1019.34 1019.39 1019.79 1019.86 1019.71 1019.75 1019.69
1012.04 1012.89 1013.64 1014.33 1014.98 1015.73 1016.26 1016.81 1017.33 1017.95 1018.57 1019.23 1019.78 1020.18 1020.44 1021.01 1021.55 1021.78 1022.03 1021.96 1021.43 1020.99 1020.61 1020.31 1020.12 1019.86 1019.82 1019.69 1019.46 1019.45 1019.59 1019.64 1019.83 1019.72 1019.35 1019.05 1019.06 1019.21 1019.68 1019.73 1019.47 1019.63 1019.50
1012.67 1013.42 1014.07 1014.59 1015.25 1015.90 1016.48 1017.24 1017.93 1018.45 1018.81 1019.24 1019.79 1020.17 1020.37 1020.54 1020.95 1021.34 1021.71 1021.49 1020.98 1020.51 1020.22 1019.93 1019.59 1019.34 1019.22 1019.14 1018.95 1018.64 1018.26 1018.27 1018.36 1018.60 1018.74 1018.60 1018.88 1018.88 1019.14 1019.08 1019.38 1019.51 1019.63
1013.02 1013.69 1014.37 1014.98 1015.65 1016.30 1017.02 1017.70 1018.26 1018.80 1019.27 1019.21 1019.42 1019.64 1019.70 1019.80 1020.68 1021.11 1021.27 1020.97 1020.60 1020.21 1019.84 1019.53 1019.25 1018.92 1018.69 1018.63 1018.46 1018.07 1017.73 1017.35 1017.22 1017.37 1017.50 1017.86 1018.39 1019.02 1019.21 1019.15 1019.23 1019.45 1019.03
1013.46 1014.12 1014.78 1015.36 1016.07 1017.10 1018.00 1018.69 1019.04 1018.94 1018.67 1018.87 1019.18 1019.52 1019.97 1020.25 1020.65 1021.26 1021.49 1021.38 1020.97 1020.46 1020.09 1019.54 1019.18 1018.86 1018.51 1018.26 1018.02 1017.65 1017.27 1016.88 1016.82 1016.58 1016.87 1017.37 1017.82 1018.08 1018.71 1019.02 1019.03 1018.88 1018.62
1014.05 1014.83 1015.78 1016.57 1017.25 1018.01 1018.55 1018.55 1018.36 1018.62 1018.97 1019.42 1019.73 1019.91 1020.14 1020.47 1020.90 1021.51 1021.85 1021.82 1021.70 1021.53 1020.81 1020.09 1019.56 1019.15 1018.73 1018.44 1018.21 1017.64 1016.83 1016.43 1016.23 1016.18 1016.13 1016.23 1016.73 1016.95 1017.15 1017.69 1018.16 1018.06 1017.90
1015.00 1015.77 1016.55 1017.19 1017.43 1017.64 1017.96 1018.45 1018.74 1018.92 1019.29 1019.62 1019.99 1020.22 1020.38 1020.73 1021.33 1022.07 1022.39 1022.72 1022.55 1021.89 1021.15 1020.49 1019.75 1019.18 1018.72 1018.12 1017.59 1017.04 1016.85 1016.64 1016.08 1015.82 1015.54 1015.63 1015.84 1015.90 1016.29 1016.44 1016.60 1016.88 1016.91
1015.57 1016.16 1016.76 1017.26 1017.61 1017.96 1018.19 1018.64 1018.81 1019.32 1020.00 1020.51 1020.76 1020.91 1021.05 1021.54 1021.76 1022.01 1022.47 1022.69 1022.44 1022.11 1021.44 1020.63 1019.81 1018.86 1017.95 1016.97 1016.38 1016.00 1015.94 1015.68 1015.31 1014.97 1014.71 1014.56 1014.62 1014.89 1015.33 1015.91 1016.15 1015.88 1015.90
1015.82 1016.58 1017.11 1017.46 1017.95 1018.37 1018.68 1019.18 1019.55 1020.38 1020.84 1021.21 1021.42 1021.79 1021.88 1022.02 1022.00 1022.70 1022.98 1022.70 1022.22 1021.76 1021.18 1020.22 1019.24 1018.18 1017.24 1016.48 1015.57 1014.78 1014.38 1014.34 1014.09 1013.86 1013.62 1013.49 1013.73 1014.12 1014.68 1015.01 1015.24 1015.47 1015.60
1016.42 1017.06 1017.69 1018.31 1018.55 1018.99 1019.74 1020.50 1021.10 1022.29 1022.71 1022.44 1022.57 1022.79 1023.00 1022.97 1023.19 1023.80 1023.67 1023.08 1022.52 1021.98 1021.19 1019.82 1018.29 1017.15 1016.27 1015.43 1014.66 1013.95 1013.28 1012.93 1013.16 1012.86 1012.62 1012.73 1013.06 1013.57 1013.97 1014.42 1014.75 1014.94 1015.00
1017.21 1017.89 1018.52 1018.94 1019.35 1019.50 1019.77 1020.97 1022.15 1022.68 1023.13 1023.44 1023.70 1024.06 1024.03 1023.94 1024.13 1024.02 1023.59 1022.97 1022.36 1021.54 1020.47 1019.17 1018.39 1017.84 1017.02 1016.12 1015.01 1014.21 1013.52 1012.35 1012.02 1012.16 1012.14 1012.19 1012.39 1012.76 1013.15 1013.62 1014.14 1014.42 1014.34
1018.12 1018.89 1019.46 1019.52 1019.73 1020.19 1020.65 1021.07 1021.36 1022.87 1022.87 1023.23 1023.61 1023.78 1024.02 1024.32 1024.18 1023.95 1023.24 1022.56 1021.64 1020.93 1020.09 1019.35 1018.82 1018.30 1017.71 1016.90 1016.01 1014.89 1014.19 1012.99 1011.28 1011.30 1011.53 1011.59 1011.81 1012.05 1012.59 1012.95 1013.39 1013.69 1013.71
1019.82 1020.10 1019.80 1020.06 1020.52 1020.85 1021.05 1021.39 1021.91 1022.21 1022.57 1022.48 1023.00 1023.18 1023.52 1023.77 1023.85 1023.36 1022.68 1021.93 1020.86 1020.58 1020.19 1019.73 1019.27 1018.85 1018.23 1017.48 1016.67 1015.71 1014.45 1013.24 1010.85 1010.59 1010.97 1011.19 1011.42 1011.61 1011.91 1012.20 1012.59 1012.93 1013.05
1020.53 1020.72 1020.96 1021.20 1021.66 1022.02 1022.01 1021.97 1022.19 1022.26 1022.50 1022.55 1022.53 1022.57 1022.81 1023.45 1023.34 1022.59 1022.23 1021.67 1021.19 1020.80 1020.51 1020.17 1019.75 1019.27 1018.77 1018.05 1017.18 1016.27 1015.43 1013.64 1010.59 1010.15 1010.61 1010.89 1011.03 1011.17 1011.32 1011.59 1011.89 1012.37 1012.61
1021.64 1022.15 1021.96 1021.69 1022.02 1022.38 1022.54 1022.58 1022.53 1022.61 1022.70 1022.70 1022.73 1022.76 1023.07 1023.64 1023.08 1022.23 1022.00 1021.82 1021.46 1021.09 1020.91 1020.55 1020.16 1019.73 1019.24 1018.44 1017.51 1016.50 1015.71 1014.40 1012.83 1010.61 1010.55 1010.53 1010.55 1010.73 1010.84 1010.96 1011.35 1011.80 1012.02
1021.54 1022.46 1022.88 1022.42 1022.38 1022.76 1023.12 1023.09 1023.02 1023.15 1023.17 1023.01 1022.97 1023.20 1024.09 1023.99 1023.14 1022.43 1022.15 1021.85 1021.72 1021.45 1021.24 1020.85 1020.44 1019.97 1019.44 1018.70 1017.85 1017.07 1016.23 1015.25 1013.81 1012.36 1010.97 1010.23 1010.28 1010.34 1010.35 1010.49 1010.93 1011.36 1011.59
1022.66 1022.84 1023.11 1023.13 1023.03 1023.38 1023.72 1023.60 1023.46 1023.38 1023.31 1023.26 1023.23 1023.21 1023.51 1023.47 1022.90 1022.68 1022.38 1022.11 1022.06 1021.71 1021.34 1021.13 1020.65 1020.14 1019.61 1018.99 1018.26 1017.55 1016.80 1016.04 1014.97 1013.86 1013.19 1012.03 1010.58 1010.06 1010.04 1010.25 1010.59 1010.85 1011.21
1023.37 1023.40 1023.43 1023.47 1023.62 1024.25 1024.10 1023.86 1023.76 1023.63 1023.57 1023.59 1023.47 1023.31 1023.19 1023.08 1023.01 1022.78 1022.52 1022.35 1022.15 1021.81 1021.64 1021.31 1020.85 1020.27 1019.88 1019.21 1018.53 1018.02 1017.15 1016.51 1015.87 1015.26 1014.43 1013.21 1011.84 1010.20 1009.87 1009.94 1010.20 1010.43 1010.79
1023.88 1023.96 1023.87 1023.88 1024.08 1024.28 1024.04 1024.03 1023.96 1024.08 1024.06 1023.75 1023.53 1023.40 1023.33 1023.25 1023.05 1022.87 1022.64 1022.24 1022.11 1021.95 1021.67 1021.29 1020.86 1020.51 1019.71 1019.00 1018.46 1017.83 1017.40 1016.71 1016.16 1015.63 1015.03 1013.88 1012.42 1011.16 1009.75 1009.72 1009.87 1010.11 1010.43
1024.20 1024.15 1024.12 1024.15 1024.36 1024.30 1024.34 1024.13 1024.11 1024.09 1024.00 1023.87 1023.65 1023.59 1023.45 1023.26 1023.00 1022.71 1022.54 1022.36 1022.21 1021.88 1021.38 1021.23 1020.85 1019.93 1019.24 1018.77 1018.18 1017.62 1016.84 1016.23 1016.03 1015.68 1014.83 1013.75 1012.70 1011.46 1010.15 1009.31 1009.49 1009.78 1010.18
1024.28 1024.39 1024.47 1024.51 1024.37 1024.25 1024.36 1024.49 1024.36 1024.21 1024.11 1024.01 1024.03 1023.92 1023.65 1023.39 1023.17 1022.90 1022.57 1022.46 1022.05 1021.83 1021.70 1020.76 1020.18 1019.63 1019.03 1018.31 1017.40 1016.67 1016.29 1016.02 1015.69 1015.19 1014.55 1013.62 1012.43 1011.04 1009.92 1009.08 1009.08 1009.29 1009.64
Wind_Speed
15 16 13 10 11 9 8 6 5 8 11 10 9 8 7 9 9 6 7 7 5 5 3 7 9 12 9 8 7 8 9 8 10 9 9 9 10 9 10 9 10 11 10
12 11 11 9 7 7 5 5 4 5 3 5 7 7 4 9 8 7 8 6 6 6 8 7 10 10 11 10 8 10 10 9 9 14 11 9 11 10 10 10 10 11 11
11 11 7 9 7 7 6 6 5 5 5 5 7 8 8 8 8 8 7 6 6 6 7 11 10 9 11 10 10 11 9 8 9 10 12 9 9 9 10 10 10 10 10
6 6 9 8 7 6 6 6 7 7 7 8 8 9 9 9 9 8 7 8 8 8 8 8 10 11 15 13 13 12 12 11 11 10 11 10 10 10 8 9 9 9 9
10 9 9 9 9 9 9 9 9 9 9 9 9 8 8 7 7 8 8 6 5 6 6 10 14 17 16 11 10 12 14 12 10 10 10 11 11 9 10 8 9 9 10
12 11 11 10 11 10 11 9 10 9 10 10 10 10 8 5 7 4 2 3 5 9 12 13 15 12 14 17 17 16 15 15 15 12 11 12 15 9 10 10 9 9 11
12 12 11 11 12 11 11 11 11 10 9 9 8 5 4 1 6 7 7 8 9 10 12 12 13 11 11 14 13 17 15 15 11 14 15 15 14 13 11 13 11 10 11
13 13 12 12 12 11 11 11 10 9 7 4 3 2 3 4 11 8 5 8 10 12 13 14 15 15 14 13 14 15 15 15 15 12 15 14 12 13 14 11 10 10 10
13 12 12 12 12 11 11 9 6 5 2 3 3 5 5 2 7 4 3 9 10 13 13 15 16 16 16 11 12 14 16 15 11 12 14 12 7 2 2 6 8 8 9
13 12 12 11 10 11 9 6 3 5 3 2 3 2 5 5 6 7 6 7 10 9 13 15 14 15 17 15 14 14 16 16 14 15 11 10 10 12 11 10 9 9 9
13 13 12 10 9 8 6 5 3 4 2 3 1 3 5 4 5 11 12 8 8 9 10 11 11 18 18 15 15 15 17 15 15 13 12 10 9 10 9 11 12 10 9
12 11 10 9 6 5 5 4 3 3 1 2 2 4 4 6 10 13 13 15 15 11 12 11 13 21 27 29 21 19 18 15 10 11 10 8 9 9 9 10 13 12 11
11 10 9 8 6 5 4 4 2 4 4 4 4 4 5 6 6 12 15 16 14 11 11 16 26 27 27 19 19 21 16 10 10 9 9 11 10 10 9 7 9 12 10
11 10 8 7 6 5 4 3 4 4 3 2 3 4 5 6 6 8 9 11 14 12 15 14 18 20 21 20 18 16 12 11 11 11 11 10 8 8 8 8 8 7 7
10 8 7 5 4 5 6 5 4 7 5 4 4 4 4 5 7 11 13 11 11 13 17 13 11 11 12 11 12 12 11 10 9 10 8 7 7 8 7 7 8 7 8
9 6 5 5 4 2 3 7 8 9 8 7 5 3 5 6 12 15 17 18 21 21 12 10 10 11 12 13 13 12 14 13 9 8 7 9 8 8 8 8 7 9 8
7 8 5 4 4 3 2 1 0 5 7 9 7 3 2 6 12 16 16 17 20 13 9 10 10 10 11 12 13 13 13 15 10 8 5 6 7 8 8 8 8 8 8
7 6 4 4 4 2 3 2 2 3 3 2 9 0 1 7 14 16 15 17 9 9 9 10 11 11 11 12 13 13 14 17 10 8 7 7 6 7 8 9 8 9 8
4 4 4 4 4 3 1 0 1 2 3 4 5 4 2 12 16 14 10 8 9 9 10 11 11 11 11 12 12 12 14 14 10 4 5 5 6 7 8 8 8 9 9
6 4 3 3 3 1 1 2 2 3 4 4 5 5 6 9 8 8 7 8 8 9 9 11 11 11 11 11 11 12 12 15 15 5 5 6 6 6 8 8 8 8 9
4 4 3 1 1 1 2 2 3 3 4 4 5 3 3 7 9 8 8 8 9 9 10 11 10 10 10 11 11 11 12 13 14 14 11 4 4 7 8 6 7 8 7
2 2 1 1 1 1 3 3 3 4 4 5 6 6 5 7 7 8 9 9 9 10 9 10 10 11 10 11 11 11 12 12 13 12 13 12 9 7 6 6 7 8 8
2 1 0 1 2 1 4 3 4 4 5 5 6 6 7 7 7 8 9 9 10 9 9 10 10 10 11 11 10 11 11 11 11 11 12 12 12 8 6 7 7 7 8
2 2 2 2 1 4 4 4 5 4 5 6 6 7 7 7 8 9 9 9 9 10 10 10 10 15 13 12 11 10 11 10 10 10 15 12 12 14 7 7 7 8 7
2 2 3 3 4 4 5 5 5 6 6 6 7 7 8 8 8 9 9 9 9 10 11 12 11 14 16 19 18 19 17 15 12 14 11 13 14 16 13 7 7 8 9
2 3 4 4 5 5 5 6 6 6 6 7 7 8 8 8 9 10 9 10 10 11 15 11 13 19 20 16 18 18 16 17 16 17 12 11 11 11 10 8 10 7 9
Wind_Direction
203 190 197 205 216 211 220 217 198 216 217 212 209 203 176 190 165 125 138 128 127 130 148 231 246 253 254 261 258 255 258 265 277 287 287 287 285 288 279 271 268 282 285
200 191 184 169 179 190 188 168 193 203 133 137 146 174 150 107 122 135 148 146 154 177 235 240 250 258 254 256 262 263 259 266 274 283 277 283 287 290 285 279 275 277 279
181 176 117 97 106 90 93 96 92 104 110 107 116 128 124 127 137 149 141 153 194 216 229 246 250 264 265 270 260 255 259 261 263 262 274 286 283 277 277 274 266 266 276
132 139 103 100 111 121 117 111 111 109 115 121 130 123 128 142 143 149 179 201 222 231 236 256 255 262 256 255 259 262 257 249 252 264 274 274 267 274 272 276 275 266 276
108 107 119 129 132 136 138 131 125 123 126 130 131 128 132 146 166 184 200 215 223 243 249 264 253 251 257 269 278 279 278 269 252 256 261 271 269 274 282 286 280 289 288
129 128 130 132 113 103 103 104 121 114 124 132 141 154 163 166 145 192 198 234 244 257 255 249 249 259 253 240 238 243 257 273 276 272 263 266 277 286 282 283 286 283 289
119 117 115 114 115 114 117 119 117 110 101 106 118 141 162 172 174 204 215 255 261 268 277 283 279 276 276 276 251 229 246 249 240 266 276 272 280 274 277 278 276 276 277
119 118 119 119 117 118 110 111 118 126 125 103 109 172 216 228 195 210 205 275 278 280 281 279 276 277 276 277 280 281 260 243 232 234 244 259 268 268 261 269 283 289 287
119 117 118 123 120 120 119 120 101 93 121 183 168 203 230 334 144 159 277 301 295 291 290 290 289 289 291 286 279 272 269 268 270 222 230 240 162 175 286 282 263 274 271
120 120 121 117 111 101 99 102 140 191 148 65 46 14 71 304 116 61 12 323 308 304 301 298 292 284 285 272 265 266 269 269 271 275 254 248 224 227 194 236 251 247 256
117 106 102 103 109 112 137 176 135 90 65 65 4 353 331 348 25 55 35 350 347 329 310 302 300 307 320 316 300 281 270 264 265 269 265 253 234 248 230 212 220 224 241
116 114 114 126 142 141 117 108 117 90 45 347 16 328 338 357 39 58 39 14 349 324 312 307 302 308 307 299 296 278 274 279 267 265 258 250 252 225 222 238 209 218 231
128 123 119 119 112 100 104 82 73 28 14 12 337 342 334 1 334 52 7 347 325 320 308 307 305 300 295 283 276 274 269 264 255 241 236 232 232 235 230 247 243 245 248
126 124 119 117 110 99 100 61 65 43 23 1 356 340 346 332 344 5 341 328 324 319 322 309 298 285 275 268 271 267 257 258 247 240 237 233 238 228 219 215 223 228 238
128 122 115 113 106 118 81 35 72 66 34 359 29 353 348 327 9 343 329 320 318 314 307 298 301 314 312 306 302 293 282 268 256 238 226 232 229 215 201 207 217 222 231
128 115 106 123 109 97 106 139 81 105 126 105 90 22 334 354 343 330 320 317 315 307 304 308 328 328 328 328 318 320 319 282 244 237 226 235 233 222 212 199 205 221 222
120 125 122 129 109 91 96 58 175 162 172 169 163 177 298 323 328 323 318 322 306 322 317 325 326 331 328 325 325 320 323 312 265 217 221 226 226 225 205 202 204 215 214
87 24 109 104 95 103 71 41 348 347 308 255 181 193 50 335 331 318 323 317 331 335 327 327 325 328 325 326 323 327 316 318 258 203 210 225 229 232 220 208 204 211 212
76 70 69 86 65 52 60 5 312 299 297 307 307 279 356 3 322 304 321 328 328 326 328 326 325 324 323 322 320 324 326 325 306 186 207 220 230 229 228 222 204 207 215
90 55 27 99 123 91 339 316 307 302 300 304 306 321 341 341 324 324 331 331 324 323 327 322 322 322 320 319 322 325 326 324 331 245 228 220 221 225 236 211 192 206 211
107 105 7 147 92 37 324 303 315 301 300 306 308 17 36 323 300 322 323 323 326 324 320 319 315 316 316 319 323 326 327 326 327 345 339 274 242 243 228 196 195 210 205
70 79 46 49 352 345 337 308 305 300 303 306 311 317 319 281 313 319 317 325 324 314 321 318 315 314 317 318 319 324 320 323 324 342 337 329 309 261 214 200 204 202 198
68 44 15 59 348 315 260 303 299 309 311 309 306 308 312 312 318 313 319 320 315 320 318 314 309 310 313 307 319 311 315 317 320 333 321 320 314 292 221 205 207 197 193
45 19 354 339 339 300 288 310 299 289 293 298 308 310 311 314 313 313 312 316 319 314 314 307 313 308 301 306 306 311 307 305 309 317 313 306 304 315 256 214 205 201 201
1 336 324 315 304 304 301 287 304 300 305 307 309 311 310 312 312 316 318 319 320 307 312 317 300 299 310 309 305 301 293 306 312 309 299 304 297 297 292 220 201 196 198
332 317 305 299 298 297 299 300 298 304 305 307 314 307 311 313 317 315 320 315 310 325 309 302 310 310 312 303 298 307 318 314 307 300 300 297 290 292 306 249 210 203 190